This demonstration page uses our WeatherBlox Daily Observations layout. Learn more.

Hourly Observations for August 23, 2016

Temp ( °F °C ) Dew Point ( °F °C ) Humidity (%) Winds ( mph kmh ) Pressure ( in mb ) Visibility ( mi km ) Precip ( " mm )
12:15 am 00:15 Clear 73 22.7 55 12.5 53 53 SSE 15 24 29.8 1009 10 16.09344 0 0
12:35 am 00:35 Clear 72 22.3 55 12.6 54 54 SSE 13 20 29.83 1010 10 16.09344 0 0
12:55 am 00:55 Clear 72 22.2 55 12.6 55 55 SSE 13 20 29.83 1010 10 16.09344 0 0
1:15 am 01:15 Clear 72 22 55 12.7 56 56 SSE 10 17 29.83 1010 10 16.09344 0 0
1:35 am 01:35 Clear 71 21.9 55 12.6 56 56 S 14 22 29.83 1010 10 16.09344 0 0
1:55 am 01:55 Clear with Nearby Thunderstorms 71 21.7 55 12.7 57 57 SSE 13 20 29.8 1009 10 16.09344 0 0
2:15 am 02:15 Clear 71 21.6 55 12.6 57 57 S 14 22 29.8 1009 10 16.09344 0 0
2:35 am 02:35 Clear 71 21.5 55 13 59 59 S 13 20 29.83 1010 10 16.09344 0 0
2:55 am 02:55 Mostly Cloudy with Light Rain 69 20.6 60 15.8 74 74 SSW 14 22 29.8 1009 10 16.09344 0 0
3:15 am 03:15 Mostly Cloudy 68 20 62 16.7 81 81 SSW 16 26 29.83 1010 10 16.09344 0 0
3:35 am 03:35 Windy with Storms Likely 68 20.1 64 17.5 85 85 S 21 33 29.8 1009 10 16.09344 0 0
3:55 am 03:55 Cloudy 68 19.8 62 16.5 81 81 SE 22 35 29.83 1010 10 16.09344 0.01 0.254
4:15 am 04:15 Cloudy with Rain 66 18.8 62 16.8 88 88 S 13 20 29.85 1011 10 16.09344 0.01 0.254
4:35 am 04:35 Cloudy 65 18.6 61 16.2 86 86 SSE 13 20 29.83 1010 10 16.09344 0.03 0.762
4:55 am 04:55 Partly Cloudy 65 18.2 62 16.7 91 91 SE 9 15 29.83 1010 10 16.09344 0.04 1.016
5:15 am 05:15 Partly Cloudy 66 18.7 64 17.5 93 93 SSE 3 6 29.77 1008 10 16.09344 0 0
5:35 am 05:35 Partly Cloudy 66 18.8 63 17.3 91 91 SSE 6 9 29.77 1008 10 16.09344 0 0
5:55 am 05:55 Clear 66 19 64 17.5 91 91 ESE 10 17 29.77 1008 10 16.09344 0 0
6:15 am 06:15 Partly Cloudy 66 18.7 63 17.2 91 91 SE 8 13 29.77 1008 10 16.09344 0 0
6:35 am 06:35 Partly Cloudy 66 18.8 63 17.2 90 90 SE 8 13 29.77 1008 10 16.09344 0 0
6:55 am 06:55 Clear 66 18.7 63 17 90 90 SE 8 13 29.77 1008 10 16.09344 0 0
7:15 am 07:15 Sunny 65 18.6 63 17 90 90 SE 9 15 29.77 1008 10 16.09344 0 0
7:35 am 07:35 Sunny 66 18.7 62 16.6 88 88 SE 13 20 29.74 1007 10 16.09344 0 0
7:55 am 07:55 Sunny 66 18.7 62 16.7 88 88 SE 10 17 29.74 1007 10 16.09344 0 0
8:15 am 08:15 Sunny 67 19.2 63 17.1 88 88 SE 9 15 29.74 1007 10 16.09344 0 0
8:35 am 08:35 Sunny 68 19.9 64 17.5 86 86 SE 8 13 29.74 1007 10 16.09344 0 0
8:55 am 08:55 Sunny 69 20.6 64 18 85 85 SSE 10 17 29.74 1007 10 16.09344 0 0
9:15 am 09:15 Sunny 70 21.2 65 18.5 85 85 SSE 9 15 29.74 1007 10 16.09344 0 0
9:35 am 09:35 Partly Cloudy 72 22.1 66 18.9 82 82 S 10 17 29.71 1006 10 16.09344 0 0
9:55 am 09:55 Mostly Cloudy 73 22.9 67 19.3 80 80 S 14 22 29.71 1006 10 16.09344 0 0
10:15 am 10:15 Partly Cloudy 75 23.8 66 19.1 75 75 S 13 20 29.71 1006 10 16.09344 0 0
10:35 am 10:35 Partly Cloudy 75 23.9 66 19.1 75 75 S 12 19 29.71 1006 10 16.09344 0 0
10:55 am 10:55 Partly Cloudy 77 25 67 19.4 71 71 S 9 15 29.71 1006 10 16.09344 0 0
11:15 am 11:15 Partly Cloudy 78 25.5 66 19 67 67 SSW 14 22 29.68 1005 10 16.09344 0 0
11:35 am 11:35 Mostly Cloudy 80 26.5 66 19 63 63 SSW 12 19 29.68 1005 10 16.09344 0 0
11:55 am 11:55 Partly Cloudy 80 26.9 66 19 62 62 S 12 19 29.68 1005 10 16.09344 0 0
12:15 pm 12:15 Partly Cloudy 81 27 65 18.3 59 59 S 10 17 29.68 1005 10 16.09344 0 0
12:35 pm 12:35 Sunny 81 27.3 65 18.3 58 58 S 8 13 29.68 1005 10 16.09344 0 0
12:55 pm 12:55 Partly Cloudy 83 28.1 65 18.1 55 55 SSW 9 15 29.68 1005 10 16.09344 0 0
1:15 pm 13:15 Sunny 83 28.5 65 18.1 53 53 SSW 9 15 29.68 1005 10 16.09344 0 0
1:35 pm 13:35 Sunny 84 29 64 18 51 51 S 10 17 29.65 1004 10 16.09344 0 0
1:55 pm 13:55 Sunny 85 29.6 65 18.3 51 51 SSW 12 19 29.65 1004 10 16.09344 0 0
2:15 pm 14:15 Sunny 86 29.8 64 17.9 49 49 SW 10 17 29.65 1004 10 16.09344 0 0
2:35 pm 14:35 Sunny 86 30.2 65 18.1 48 48 WSW 8 13 29.65 1004 10 16.09344 0 0
2:55 pm 14:55 Sunny 87 30.3 65 18.3 49 49 SW 7 11 29.65 1004 10 16.09344 0 0
3:15 pm 15:15 Sunny 87 30.6 63 17.1 44 44 SW 6 9 29.65 1004 10 16.09344 0 0
3:35 pm 15:35 Sunny 88 31.1 62 16.9 43 43 SSW 5 7 29.65 1004 10 16.09344 0 0
3:55 pm 15:55 Sunny 88 31.3 62 16.7 41 41 S 5 7 29.65 1004 10 16.09344 0 0
4:15 pm 16:15 Sunny 88 31.3 61 16.3 40 40 S 6 9 29.65 1004 10 16.09344 0 0
4:35 pm 16:35 Sunny 89 31.5 63 17 42 42 S 6 9 29.65 1004 10 16.09344 0 0
4:55 pm 16:55 Sunny 89 31.8 62 16.8 41 41 S 3 6 29.65 1004 10 16.09344 0 0
5:15 pm 17:15 Sunny 89 31.9 62 16.5 40 40 Calm 29.65 1004 10 16.09344 0 0
5:35 pm 17:35 Sunny 89 31.8 63 17.1 41 41 Calm 29.65 1004 10 16.09344 0 0
5:55 pm 17:55 Sunny 88 31.2 65 18.2 46 46 E 3 6 29.65 1004 10 16.09344 0 0
6:15 pm 18:15 Sunny 87 30.7 65 18.4 48 48 NE 3 6 29.65 1004 10 16.09344 0 0
6:35 pm 18:35 Sunny 87 30.4 65 18.4 49 49 NE 3 6 29.65 1004 10 16.09344 0 0
6:55 pm 18:55 Sunny 86 30 68 19.9 55 55 NE 3 6 29.65 1004 7 11.265408 0 0
7:15 pm 19:15 Sunny 84 28.8 70 21 63 63 Calm 29.65 1004 10 16.09344 0 0
7:35 pm 19:35 Sunny 83 28.5 72 22.1 68 68 Calm 29.68 1005 10 16.09344 0 0
7:55 pm 19:55 Sunny 81 27.4 71 21.9 72 72 NNW 7 11 29.71 1006 10 16.09344 0 0
8:15 pm 20:15 Sunny 81 27.1 64 18 58 58 NNW 9 15 29.71 1006 10 16.09344 0 0
8:35 pm 20:35 Clear 76 24.4 62 16.5 61 61 NNW 8 13 29.74 1007 10 16.09344 0 0
8:55 pm 20:55 Clear 74 23.2 60 15.6 62 62 NNW 7 11 29.77 1008 10 16.09344 0 0
9:15 pm 21:15 Clear 71 21.9 60 15.7 68 68 NNW 7 11 29.8 1009 10 16.09344 0 0
9:35 pm 21:35 Clear 70 21.2 59 15.2 69 69 NNW 6 9 29.83 1010 10 16.09344 0 0
9:55 pm 21:55 Clear 68 19.9 58 14.7 72 72 NW 5 7 29.83 1010 10 16.09344 0 0
10:15 pm 22:15 Clear 66 18.7 58 14.6 77 77 NW 7 11 29.85 1011 10 16.09344 0 0
10:35 pm 22:35 Clear 65 18.5 58 14.4 77 77 NW 6 9 29.88 1012 10 16.09344 0 0
10:55 pm 22:55 Clear 64 17.8 59 14.9 83 83 NW 5 7 29.88 1012 10 16.09344 0 0
11:15 pm 23:15 Clear 63 17.3 59 15 86 86 W 6 9 29.88 1012 10 16.09344 0 0
11:35 pm 23:35 Clear 64 17.5 57 14.1 81 81 W 5 7 29.91 1013 10 16.09344 0 0
11:55 pm 23:55 Clear 63 17.3 57 13.7 80 80 NW 3 6 29.91 1013 10 16.09344 0 0

Powered by AerisWeather